Wind_Speed
41 43 46 42 37 33 34 34 33 31 31 30 27 26 27 28 27 25 24 25 25 26 24 24 23 23 24 22 22 21 20 19 18 20 18 18 16 14 13 13 13 13 13
43 44 43 40 33 31 33 34 35 31 31 30 28 28 27 28 28 29 28 29 29 30 29 27 27 27 26 26 26 25 23 22 21 21 21 21 20 19 19 18 18 18 18
44 43 42 38 35 30 29 33 31 30 29 29 28 29 29 29 30 31 32 34 33 32 32 31 30 30 29 28 28 28 27 26 25 24 24 24 23 23 24 24 24 24 23
44 44 40 36 30 27 26 26 28 26 24 20 19 21 24 27 30 33 35 35 36 33 33 34 34 33 33 31 31 31 30 31 30 29 29 28 28 27 27 28 28 28 27
42 42 36 28 28 29 25 23 23 21 20 17 16 15 15 18 23 26 30 31 32 34 34 35 36 37 36 36 35 34 34 35 35 34 34 34 33 32 31 31 31 32 33
39 37 28 26 25 24 22 18 17 18 15 15 14 13 15 16 13 16 20 23 25 29 31 32 34 36 39 39 38 38 39 37 37 37 38 37 37 37 37 37 37 36 37
37 30 25 23 20 18 17 17 15 14 15 19 19 20 19 17 16 13 14 16 18 20 24 27 29 31 34 38 40 40 41 40 42 43 43 43 44 44 44 44 44 43 42
31 26 24 21 19 18 18 17 18 17 17 20 21 21 19 19 19 20 22 24 24 24 24 24 24 26 30 34 35 37 38 38 40 43 46 46 46 48 49 49 49 49 47
28 26 24 22 21 20 20 20 19 20 22 23 23 23 24 25 26 27 26 27 27 27 28 29 28 28 28 28 28 28 28 27 27 29 32 36 40 43 45 46 46 47 48
26 25 24 24 25 22 22 23 22 23 25 25 26 26 28 29 31 30 31 31 32 32 30 31 30 32 31 31 31 32 32 33 35 35 32 31 31 32 33 35 36 39 42
27 26 26 27 27 26 26 26 27 27 28 30 31 31 33 34 35 37 37 37 36 35 35 36 35 35 37 38 36 37 39 39 39 38 40 40 40 40 39 38 39 39 38
31 30 30 31 31 32 33 33 33 33 34 36 37 38 40 40 41 41 42 43 43 43 43 44 45 44 43 43 46 45 44 42 43 45 46 45 44 43 42 43 44 44 43
35 36 37 37 37 38 38 39 40 41 42 42 44 45 46 47 48 48 49 50 50 51 52 52 51 51 51 51 53 54 56 54 51 50 50 50 50 51 50 49 48 47 46
40 42 43 43 43 43 45 46 47 47 49 50 51 52 53 54 55 56 57 57 58 60 60 61 58 58 59 61 60 61 62 61 60 58 56 55 56 55 56 56 55 53 51
46 46 48 49 50 50 50 52 53 55 56 57 58 58 60 61 62 64 64 66 67 68 69 69 69 69 68 68 68 68 68 68 66 64 64 63 62 61 60 61 60 60 57
52 54 54 55 56 57 58 59 61 61 62 64 66 67 68 69 70 71 72 73 75 76 76 77 77 74 73 74 74 75 75 75 74 71 69 66 64 64 65 66 66 65 64
61 62 61 62 62 64 65 66 66 68 69 71 72 73 75 76 76 79 80 82 84 85 84 81 82 84 84 83 82 83 82 81 79 77 74 73 70 70 70 71 71 69 68
66 67 69 70 70 71 72 74 75 76 77 78 80 82 83 84 86 88 89 90 91 91 90 90 92 93 93 93 91 91 89 87 84 81 77 77 78 78 76 76 76 73 71
71 72 73 74 75 77 78 80 81 82 84 85 85 87 89 90 91 92 93 95 97 98 100 101 101 102 102 101 100 99 96 90 90 87 84 84 80 81 79 82 82 79 78
76 77 79 80 81 82 83 84 86 87 88 88 88 89 91 92 93 95 95 97 99 102 105 107 108 109 107 104 101 98 96 95 92 88 86 83 62 89 82 86 82 85 85
77 77 79 81 82 84 86 89 91 92 91 91 92 92 95 97 100 99 100 101 101 101 102 103 104 104 102 99 96 95 93 89 89 87 87 85 66 68 43 94 92 90 90
81 82 85 88 91 92 92 91 92 94 96 94 93 94 94 93 94 96 98 99 101 102 102 103 104 105 104 103 99 98 93 92 91 90 89 84 84 84 72 83 85 90 89
85 87 87 88 89 91 93 92 91 92 93 93 93 92 91 89 88 88 89 90 89 88 89 89 90 88 86 88 91 91 92 92 94 94 95 90 87 87 86 98 95 92 90
87 89 88 87 86 87 88 89 90 86 82 79 78 76 77 80 81 80 81 81 83 85 87 86 85 80 77 77 82 84 83 83 86 89 97 99 96 95 95 95 96 94 94
81 81 84 86 86 85 82 71 65 66 70 72 74 76 77 77 76 77 79 77 76 74 76 76 73 67 64 63 68 73 75 76 78 86 92 96 96 99 99 99 97 97 96
81 83 83 81 77 71 69 69 71 71 71 72 73 75 75 75 75 69 62 61 58 58 62 64 63 58 55 52 56 61 65 68 70 73 82 90 90 93 97 101 101 101 100
Wind_Direction
292 293 296 296 292 285 282 282 290 279 279 280 278 269 267 263 260 262 262 266 265 263 264 266 270 272 277 284 278 273 273 267 267 270 263 265 265 266 270 274 273 269 269
291 291 292 293 287 286 282 283 287 282 281 278 278 271 263 260 258 259 259 260 265 262 261 260 263 265 267 273 280 279 275 273 269 264 267 265 264 264 265 265 266 266 266
287 290 290 290 285 281 277 280 280 279 281 280 282 275 268 262 260 258 260 261 261 258 258 258 256 260 262 265 269 274 275 273 271 268 266 262 262 266 269 270 272 270 269
286 288 290 287 281 278 275 275 274 279 281 282 282 277 272 267 262 260 260 260 261 257 257 257 257 257 259 260 262 267 269 270 271 272 273 271 267 267 268 270 273 274 273
284 287 288 278 278 281 277 267 268 271 277 278 283 285 286 279 270 265 263 263 262 263 264 262 260 259 260 264 266 266 269 270 271 272 273 274 276 274 271 270 274 274 275
281 282 274 270 275 277 272 262 261 268 275 293 293 292 300 306 299 287 275 274 270 268 266 267 266 263 259 261 265 268 270 271 269 271 273 274 275 274 274 275 275 276 274
279 276 265 264 264 265 262 256 262 264 276 286 290 289 296 294 292 290 290 289 288 285 276 275 273 270 267 266 267 269 271 272 270 269 272 274 275 275 276 277 278 279 279
275 267 259 256 262 268 266 260 262 268 277 282 280 287 286 290 289 288 293 294 297 295 293 285 284 278 274 271 271 271 272 272 272 270 271 275 274 273 273 275 276 278 278
272 264 262 260 266 269 271 271 275 279 281 285 283 285 285 291 293 295 295 296 295 290 292 294 288 284 278 274 276 278 280 281 279 278 277 275 274 274 274 277 277 276 277
268 266 267 268 270 270 270 271 273 278 279 282 283 285 288 289 285 288 290 291 293 292 293 291 292 291 285 277 280 282 282 283 284 286 284 285 283 283 286 284 284 282 280
268 267 269 272 272 268 272 271 273 274 276 277 277 278 282 285 286 288 288 290 289 288 286 286 286 286 287 286 283 282 282 283 281 281 283 284 285 284 285 284 283 282 282
266 267 269 270 271 271 273 272 272 273 273 275 275 276 278 280 281 281 283 283 283 284 284 284 283 282 281 282 283 282 280 280 280 282 283 283 282 282 282 282 280 280 280
267 268 269 271 271 271 272 273 274 276 276 276 276 275 276 278 278 278 279 279 279 278 277 276 276 277 275 278 281 283 283 282 280 279 279 279 281 281 280 279 279 280 281
265 266 266 267 269 271 271 271 271 272 274 275 276 277 278 279 279 280 280 279 279 278 278 277 276 275 274 275 275 276 277 278 279 278 279 280 278 278 278 279 279 279 280
265 266 267 268 268 268 269 270 272 273 274 274 275 275 276 277 278 278 279 279 279 280 280 280 280 280 278 277 277 278 277 277 277 276 277 278 279 278 276 275 275 277 278
265 266 267 268 268 269 270 271 272 272 273 274 275 276 277 278 278 279 279 279 279 279 279 278 279 279 280 280 279 279 280 280 279 279 278 277 277 276 275 275 276 275 275
265 266 267 267 268 269 269 269 270 272 273 273 274 275 276 276 274 277 277 277 279 280 279 278 279 281 282 281 280 279 279 278 277 277 276 276 276 275 275 275 273 273 274
266 267 267 268 269 270 270 271 272 273 273 274 275 276 276 276 277 277 278 278 279 277 277 278 279 279 280 280 279 278 278 278 276 274 273 275 275 274 274 274 274 273 272
268 269 270 271 271 272 272 273 274 275 277 277 277 277 278 278 279 280 280 279 279 279 277 278 278 279 280 280 279 279 277 276 275 274 273 273 274 275 275 274 275 273 272
270 271 273 274 275 276 276 277 277 277 277 278 278 278 279 278 279 279 278 278 278 278 278 278 279 279 278 277 276 275 275 274 273 271 270 268 274 272 272 274 273 273 273
273 274 277 279 279 279 279 279 279 280 279 279 280 281 283 282 283 284 283 282 281 280 280 279 278 277 276 273 272 272 271 269 269 269 266 264 256 255 254 269 266 266 271
275 278 278 279 280 281 282 281 281 281 281 282 281 281 283 283 284 284 283 282 281 280 280 279 277 277 276 275 273 270 269 268 268 266 265 263 260 257 257 256 255 264 266
275 277 278 278 277 277 277 278 278 279 280 280 281 282 283 283 282 282 284 282 282 283 282 280 280 279 276 273 270 267 265 263 262 262 262 261 259 256 244 249 258 261 262
275 276 277 276 278 278 280 282 283 284 283 282 282 282 282 283 286 288 288 287 286 286 286 287 286 284 279 274 271 268 263 260 259 256 257 258 257 256 256 255 258 258 260
274 275 276 277 280 283 285 284 282 282 283 284 284 284 285 287 287 286 287 288 289 289 290 291 291 289 283 277 272 269 266 262 258 255 254 255 255 255 256 257 257 258 259
274 274 276 278 281 283 285 285 286 284 284 284 284 285 287 286 287 288 289 289 290 289 291 295 296 294 290 280 272 266 264 262 259 255 253 254 254 255 255 255 257 259 260
Height
10897 10896 10894 10891 10890 10888 10887 10886 10885 10886 10886 10885 10885 10885 10885 10885 10886 10886 10887 10887 10887 10887 10887 10887 10887 10887 10886 10885 10884 10883 10883 10882 10883 10881 10881 10880 10880 10879 10878 10878 10877 10876 10875
10893 10892 10890 10887 10887 10885 10882 10881 10880 10880 10880 10879 10879 10878 10879 10879 10880 10881 10881 10881 10882 10882 10882 10882 10882 10883 10882 10882 10881 10880 10879 10879 10879 10878 10877 10877 10877 10876 10875 10874 10873 10873 10872
10888 10886 10885 10883 10881 10880 10879 10875 10874 10874 10875 10874 10874 10873 10873 10874 10874 10875 10876 10876 10876 10876 10877 10877 10877 10877 10877 10877 10876 10875 10875 10874 10874 10874 10873 10873 10873 10872 10871 10870 10870 10869 10868
10882 10881 10879 10877 10875 10874 10874 10872 10870 10870 10871 10870 10869 10868 10868 10868 10868 10868 10869 10870 10870 10870 10871 10871 10871 10871 10871 10871 10871 10871 10870 10870 10869 10869 10868 10868 10868 10867 10866 10865 10864 10863 10863
10877 10875 10874 10870 10869 10868 10868 10867 10868 10867 10867 10867 10866 10865 10864 10864 10863 10863 10863 10864 10864 10865 10865 10866 10866 10866 10866 10866 10865 10865 10865 10865 10864 10863 10863 10862 10862 10862 10861 10860 10859 10858 10857
10871 10870 10867 10866 10865 10865 10863 10863 10864 10865 10865 10864 10864 10862 10862 10861 10860 10859 10859 10859 10859 10859 10860 10860 10860 10860 10860 10860 10860 10859 10859 10859 10858 10857 10857 10856 10856 10855 10854 10853 10853 10852 10851
10864 10864 10862 10862 10861 10860 10859 10860 10861 10861 10862 10862 10860 10860 10858 10858 10858 10857 10856 10856 10856 10855 10855 10855 10855 10854 10854 10854 10854 10853 10853 10852 10852 10851 10850 10850 10849 10848 10847 10846 10845 10844 10844
10859 10858 10858 10858 10858 10857 10858 10858 10859 10858 10858 10858 10858 10857 10856 10855 10855 10855 10854 10853 10852 10852 10851 10851 10850 10849 10849 10848 10847 10847 10846 10846 10845 10844 10843 10842 10841 10840 10839 10838 10838 10837 10836
10854 10854 10854 10855 10855 10855 10855 10855 10855 10855 10855 10854 10854 10853 10852 10851 10851 10850 10850 10849 10849 10847 10846 10846 10845 10844 10843 10843 10842 10841 10840 10840 10838 10837 10836 10835 10834 10833 10831 10830 10829 10829 10827
10850 10850 10851 10851 10852 10852 10851 10851 10851 10850 10850 10849 10849 10849 10848 10848 10847 10846 10845 10844 10844 10843 10842 10841 10840 10839 10838 10838 10837 10836 10834 10834 10833 10831 10830 10829 10828 10827 10825 10823 10822 10821 10820
10845 10845 10846 10846 10846 10847 10846 10847 10846 10846 10845 10845 10844 10844 10843 10843 10842 10841 10840 10839 10838 10838 10837 10835 10834 10832 10831 10829 10829 10829 10828 10827 10825 10824 10823 10822 10821 10820 10818 10816 10815 10814 10812
10839 10839 10840 10840 10841 10840 10840 10840 10840 10840 10840 10840 10839 10838 10838 10837 10836 10835 10834 10833 10832 10831 10829 10828 10827 10826 10825 10823 10820 10820 10820 10819 10817 10816 10815 10813 10812 10811 10809 10808 10806 10805 10804
10832 10832 10833 10833 10833 10834 10834 10833 10833 10832 10831 10831 10831 10831 10830 10829 10828 10827 10826 10824 10822 10821 10820 10819 10818 10817 10816 10815 10813 10810 10807 10807 10807 10807 10805 10804 10803 10801 10799 10798 10797 10795 10795
10826 10825 10824 10825 10825 10825 10825 10824 10824 10824 10823 10822 10821 10820 10820 10819 10817 10816 10814 10813 10811 10809 10808 10806 10806 10806 10804 10803 10802 10800 10797 10795 10794 10794 10793 10792 10791 10790 10789 10787 10786 10785 10784
10817 10816 10816 10816 10816 10815 10815 10814 10813 10812 10812 10811 10810 10810 10808 10806 10804 10802 10800 10798 10797 10795 10792 10791 10790 10790 10789 10788 10786 10784 10783 10781 10780 10779 10779 10779 10778 10777 10776 10774 10773 10772 10772
10807 10807 10806 10806 10806 10805 10804 10803 10802 10801 10800 10798 10797 10795 10794 10791 10788 10786 10784 10782 10780 10778 10777 10775 10773 10772 10771 10771 10769 10767 10765 10765 10763 10763 10762 10764 10764 10763 10761 10760 10759 10759 10759
10797 10797 10796 10796 10795 10793 10792 10791 10790 10788 10787 10784 10783 10781 10780 10778 10775 10772 10769 10766 10763 10760 10759 10758 10755 10752 10751 10750 10749 10746 10745 10747 10746 10745 10746 10746 10747 10747 10746 10744 10743 10743 10744
10784 10784 10784 10784 10783 10781 10779 10777 10776 10774 10772 10770 10768 10765 10763 10761 10758 10756 10753 10749 10745 10742 10739 10737 10734 10732 10729 10727 10727 10724 10726 10727 10727 10727 10729 10728 10729 10729 10729 10727 10726 10727 10728
10770 10770 10769 10768 10767 10766 10764 10762 10760 10758 10756 10753 10751 10747 10742 10740 10737 10736 10732 10727 10721 10718 10714 10711 10711 10707 10705 10704 10702 10700 10700 10703 10705 10707 10710 10710 10712 10712 10713 10709 10707 10708 10708
10756 10755 10753 10752 10751 10748 10745 10744 10742 10739 10736 10735 10731 10727 10723 10719 10716 10713 10712 10706 10700 10695 10689 10684 10681 10677 10675 10676 10674 10674 10674 10676 10680 10684 10688 10693 10704 10696 10697 10691 10691 10688 10688
10742 10740 10737 10734 10733 10731 10727 10723 10721 10718 10715 10713 10710 10706 10702 10697 10691 10687 10683 10677 10673 10668 10662 10656 10650 10645 10643 10643 10644 10647 10646 10650 10654 10658 10662 10671 10684 10681 10687 10671 10671 10670 10670
10725 10723 10720 10717 10715 10712 10707 10702 10699 10694 10692 10691 10688 10684 10681 10675 10670 10665 10658 10652 10646 10641 10635 10628 10621 10616 10614 10609 10611 10613 10620 10625 10629 10631 10634 10642 10651 10658 10666 10646 10647 10649 10653
10710 10708 10705 10701 10697 10694 10690 10685 10682 10678 10674 10670 10667 10663 10660 10654 10648 10643 10637 10630 10622 10616 10607 10598 10593 10588 10586 10581 10577 10579 10587 10597 10599 10602 10605 10615 10620 10629 10635 10625 10628 10630 10633
10694 10691 10687 10682 10678 10674 10671 10669 10666 10660 10654 10649 10642 10640 10636 10631 10627 10622 10614 10607 10600 10592 10582 10575 10566 10560 10556 10555 10549 10550 10555 10563 10569 10575 10576 10581 10591 10597 10601 10606 10609 10612 10615
10677 10673 10669 10665 10661 10658 10655 10650 10645 10640 10635 10632 10626 10622 10619 10615 10609 10603 10596 10589 10582 10573 10564 10554 10545 10537 10532 10530 10525 10523 10527 10535 10543 10546 10548 10551 10563 10569 10575 10581 10586 10589 10593
10660 10656 10653 10650 10647 10643 10638 10633 10628 10623 10619 10615 10611 10606 10602 10598 10592 10586 10580 10572 10566 10557 10548 10537 10528 10519 10513 10509 10505 10504 10505 10511 10517 10520 10527 10527 10538 10544 10549 10556 10562 10565 10570